Dewpoint
47 48 48 47 48 49 50 50 51 51 50 48 47 47 47 47 48 49 46 45 45 45 45 44 44 46 44 43 43 42 41 41 36 35 37 38 42 42 41 44 41 43 38
45 44 46 45 45 45 45 47 50 49 48 46 44 44 44 45 47 44 43 42 42 41 42 42 42 38 44 46 41 43 42 42 41 37 36 37 38 43 40 43 37 37 41
43 42 45 45 44 45 47 48 48 46 44 43 44 44 42 44 44 44 44 42 41 40 40 42 42 42 43 42 42 40 38 39 38 36 35 35 36 37 37 40 38 37 36
48 48 47 47 47 45 45 46 46 44 44 43 42 41 42 42 41 42 43 43 42 42 42 43 43 42 42 42 39 40 39 38 37 33 33 33 33 36 37 34 35 34 35
47 48 48 48 49 47 45 46 47 45 44 44 44 43 44 41 36 42 41 42 45 45 46 44 45 41 42 41 38 39 41 37 33 31 31 32 32 33 33 35 33 34 34
45 46 48 49 48 47 47 44 45 43 44 44 44 44 43 39 42 40 40 41 44 45 46 46 46 47 46 45 44 43 41 38 35 33 32 32 34 35 35 34 32 31 31
44 46 48 48 47 47 46 45 45 45 45 45 46 45 44 45 42 42 42 42 44 44 46 45 45 40 43 44 44 44 44 42 42 38 35 35 35 36 35 32 31 33 33
44 42 46 46 43 44 45 45 46 47 47 46 45 46 46 46 45 42 44 45 45 46 45 46 46 46 46 45 43 42 41 39 40 34 35 36 37 34 34 33 34 34 34
41 41 41 42 43 44 45 46 48 47 47 47 46 47 48 47 46 43 44 44 44 45 45 46 46 46 41 35 38 39 38 37 37 40 41 39 36 36 37 36 32 31 33
40 43 44 45 45 45 48 49 50 49 48 46 47 48 47 48 47 44 43 42 44 44 47 45 44 42 37 34 36 37 34 33 35 35 34 35 37 38 42 39 35 36 36
44 42 45 46 48 49 51 52 51 50 49 50 49 50 50 50 50 47 45 45 45 43 41 40 40 37 35 35 36 36 35 35 35 34 33 32 33 36 36 36 36 35 37
46 44 45 49 46 46 51 51 51 52 51 50 50 50 51 51 50 45 44 42 43 39 40 39 42 38 37 37 37 36 36 37 33 33 32 33 30 31 34 35 36 36 40
43 46 48 49 49 51 51 51 51 52 51 50 50 50 51 51 49 46 44 42 42 41 41 39 39 37 37 37 37 37 38 37 35 33 29 29 32 34 35 34 35 38 36
47 49 50 50 49 51 50 51 52 51 50 50 49 48 48 48 47 46 47 46 44 44 41 36 36 35 36 35 35 36 37 37 32 31 31 32 31 31 31 31 35 34 36
47 47 49 49 49 50 52 53 52 52 47 46 47 46 45 46 44 36 34 33 32 33 32 32 31 31 32 35 36 35 35 34 31 33 31 28 28 28 27 32 32 37 35
46 44 49 48 50 49 51 52 42 43 43 42 41 40 42 39 36 33 33 33 33 34 30 29 30 31 32 30 30 29 30 31 30 31 29 29 26 27 30 29 31 35 34
49 50 50 45 45 45 47 46 48 43 43 43 41 41 40 37 35 35 34 34 33 32 28 29 31 31 31 31 29 28 26 28 32 30 29 26 26 27 27 30 31 33 32
49 45 45 44 45 46 45 45 42 42 43 43 40 40 39 39 36 34 33 33 29 32 30 30 31 32 32 31 29 28 28 27 26 28 27 27 27 25 26 27 30 31 32
44 45 48 46 43 41 41 38 39 40 40 38 44 39 38 38 36 34 34 28 30 31 31 30 32 33 32 31 31 30 31 26 29 28 27 27 26 27 25 28 29 29 29
46 43 41 40 34 37 37 36 37 38 38 35 33 38 38 36 33 32 31 31 31 32 31 30 30 32 33 30 29 30 24 26 26 25 26 27 27 26 25 28 28 28 28
41 45 37 38 35 34 35 35 35 35 33 32 33 33 33 34 31 31 31 31 33 31 32 32 27 28 29 29 27 27 25 25 24 25 27 26 25 24 28 28 28 28 28
42 40 40 40 38 37 37 38 38 36 32 31 32 31 29 31 31 32 32 33 35 34 33 34 31 30 28 28 28 28 26 24 25 27 27 25 24 24 28 28 28 28 29
40 40 38 37 38 37 37 36 35 35 33 32 32 30 29 31 32 33 34 36 37 36 36 34 33 30 30 32 33 28 22 27 28 27 26 25 25 28 28 28 27 28 29
40 36 34 35 36 35 35 36 37 34 33 32 32 33 34 33 35 35 36 36 37 37 37 35 33 30 32 33 31 27 27 26 28 27 26 26 26 28 28 28 29 29 28
42 39 37 36 36 37 37 36 36 36 35 35 35 35 34 37 37 37 36 37 38 37 35 34 33 33 32 31 27 26 27 28 28 28 28 27 26 27 28 28 29 28 28
43 40 38 38 38 39 42 43 43 44 44 44 44 44 44 42 41 40 38 38 37 35 34 33 33 32 30 27 26 26 29 28 28 29 28 28 28 28 28 28 28 29 30
Lifted_Index
8 9 9 10 11 11 11 10 10 11 11 12 13 13 13 12 12 13 13 13 13 13 13 13 13 13 13 13 12 12 12 13 13 13 13 14 13 13 13 14 14 14 15
8 9 10 11 12 12 11 11 11 11 12 13 13 13 13 13 13 13 13 13 13 13 14 13 13 13 13 12 12 12 12 12 13 13 13 14 13 13 13 13 13 14 14
9 9 11 11 12 12 12 12 12 13 13 14 14 14 13 13 13 13 13 13 13 13 13 13 13 12 12 12 12 12 12 12 13 13 14 14 13 13 13 13 13 14 14
9 10 11 11 11 12 12 12 13 13 13 13 13 13 13 13 13 12 12 12 11 11 11 11 11 11 11 11 12 12 12 13 13 14 14 13 13 13 13 13 13 14 14
9 10 10 10 11 11 12 12 12 13 13 13 12 12 12 12 12 12 12 11 11 10 10 9 10 10 10 10 11 11 12 12 13 13 13 12 12 11 11 12 12 13 13
9 9 9 9 10 10 11 11 12 12 12 12 11 11 11 11 11 11 11 11 10 9 9 8 8 8 8 9 9 10 10 11 11 11 11 11 10 10 10 11 11 12 12
9 9 8 8 9 9 10 10 10 10 10 10 9 9 9 9 9 9 9 9 9 8 7 7 6 6 7 7 7 8 8 9 9 10 10 10 9 9 10 10 11 11 11
8 8 8 8 8 8 8 8 8 8 8 8 8 7 7 6 6 6 6 7 7 6 6 5 5 5 5 6 6 7 7 8 8 9 9 9 9 10 10 10 10 10 10
7 7 8 7 7 7 7 6 6 6 6 6 5 5 4 4 4 4 5 5 5 4 4 4 4 4 5 5 6 7 7 8 8 9 9 9 10 9 9 9 10 10 10
6 6 7 6 6 6 5 4 4 4 3 3 3 2 2 2 2 3 3 3 3 3 3 3 4 4 5 5 6 7 7 8 9 9 9 9 9 8 8 9 9 10 10
5 5 5 5 4 4 3 2 2 1 1 1 1 1 1 1 1 1 2 2 2 3 3 3 4 5 5 6 6 7 8 8 9 9 9 8 8 8 8 9 9 9 10
4 4 3 3 2 2 1 1 0 0 0 1 0 0 0 0 1 1 1 1 2 3 3 4 4 5 5 6 6 7 8 8 8 8 8 8 8 8 8 9 9 9 10
2 2 1 1 0 0 0 0 -0 -0 -0 0 0 0 0 0 1 1 1 2 2 3 4 5 5 5 6 6 6 7 7 7 7 8 8 8 8 8 9 9 9 10 10
1 1 0 -0 -0 -0 -0 -0 -0 -0 -0 -0 0 1 1 1 1 2 2 3 3 4 4 5 6 6 6 6 6 6 6 7 7 8 8 8 9 9 9 10 10 11 11
0 -0 -1 -1 -1 -1 -1 -1 -1 -1 -0 0 1 2 2 2 2 3 4 4 4 5 5 6 6 6 6 5 6 6 7 7 7 8 8 9 9 10 10 10 11 11 12
-1 -1 -1 -1 -1 -1 -1 -1 -1 -1 0 1 2 3 3 3 4 4 5 5 6 6 6 6 6 5 5 5 6 6 7 7 7 8 9 9 10 10 10 10 11 12 12
-1 -1 -1 -1 -1 -1 -1 -1 -1 -0 0 1 2 3 3 4 4 5 6 6 6 6 5 5 5 4 5 5 6 6 7 7 8 8 9 10 10 10 10 11 12 13 12
-1 -1 -1 -1 -1 -0 -0 -0 0 0 1 1 2 2 3 4 4 5 5 5 5 4 4 4 4 4 4 5 5 6 7 8 8 9 9 10 10 11 11 12 13 13 12
-0 -0 -0 -0 0 1 1 1 1 1 1 1 2 2 3 4 4 5 5 4 4 4 3 3 3 3 4 4 5 6 7 8 8 9 10 10 11 11 12 12 13 13 12
-0 -0 0 1 1 2 1 1 1 1 1 2 2 2 3 3 4 4 4 4 4 3 3 3 3 3 3 4 5 6 7 8 9 9 10 11 11 12 12 13 14 13 12
0 0 1 1 2 2 1 1 1 1 1 2 2 3 3 3 3 4 3 3 3 3 3 3 3 3 4 4 5 6 7 8 9 10 10 11 12 13 13 13 14 13 13
0 0 1 1 1 1 1 1 1 1 2 2 2 3 3 3 3 3 3 3 3 3 3 3 3 4 4 4 5 6 8 9 10 10 11 12 13 14 13 13 14 13 13
1 1 1 1 1 1 1 1 1 1 2 2 2 3 3 3 3 3 3 3 3 3 3 4 4 4 4 4 5 7 8 9 10 11 12 13 14 14 13 13 13 13 13
1 1 2 1 1 1 1 1 1 1 2 2 2 2 3 3 3 3 3 3 3 3 4 4 4 4 4 5 6 7 8 10 11 11 12 13 14 14 13 13 14 14 14
0 1 1 1 1 1 1 1 1 1 2 2 2 2 3 3 3 3 3 3 3 3 4 4 4 4 5 5 6 8 9 10 11 12 13 14 14 13 13 14 14 14 14
-0 0 1 1 1 0 0 1 1 1 2 2 2 3 3 3 3 3 3 3 3 3 4 4 4 5 5 6 7 8 9 11 12 12 13 14 14 13 13 14 14 15 14